Year,Month,Day,Hour,Minute,Value (Times are PST for temperature in C)
2018,02,21,00,00,-2.10
2018,02,21,00,01,-2.10
2018,02,21,00,02,-2.10
2018,02,21,00,03,-2.10
2018,02,21,00,04,-2.10
2018,02,21,00,05,-2.10
2018,02,21,00,06,-2.10
2018,02,21,00,07,-2.10
2018,02,21,00,08,-2.10
2018,02,21,00,09,-2.10
2018,02,21,00,10,-2.10
2018,02,21,00,11,-2.10
2018,02,21,00,12,-2.10
2018,02,21,00,13,-2.10
2018,02,21,00,14,-2.20
2018,02,21,00,15,-2.20
2018,02,21,00,16,-2.20
2018,02,21,00,17,-2.20
2018,02,21,00,18,-2.20
2018,02,21,00,19,-2.20
2018,02,21,00,20,-2.30
2018,02,21,00,21,-2.30
2018,02,21,00,22,-2.30
2018,02,21,00,23,-2.30
2018,02,21,00,24,-2.30
2018,02,21,00,25,-2.30
2018,02,21,00,26,-2.20
2018,02,21,00,27,-2.20
2018,02,21,00,28,-2.20
2018,02,21,00,29,-2.20
2018,02,21,00,30,-2.20
2018,02,21,00,31,-2.20
2018,02,21,00,32,-2.20
2018,02,21,00,33,-2.20
2018,02,21,00,34,-2.20
2018,02,21,00,35,-2.20
2018,02,21,00,36,-2.20
2018,02,21,00,37,-2.20
2018,02,21,00,38,-2.20
2018,02,21,00,39,-2.20
2018,02,21,00,40,-2.20
2018,02,21,00,41,-2.20
2018,02,21,00,42,-2.20
2018,02,21,00,43,-2.20
2018,02,21,00,44,-2.10
2018,02,21,00,45,-2.10
2018,02,21,00,46,-2.10
2018,02,21,00,47,-2.10
2018,02,21,00,48,-2.10
2018,02,21,00,49,-2.10
2018,02,21,00,50,-2.10
2018,02,21,00,51,-2.10
2018,02,21,00,52,-2.10
2018,02,21,00,53,-2.10
2018,02,21,00,54,-2.10
2018,02,21,00,55,-2.00
2018,02,21,00,56,-2.00
2018,02,21,00,57,-2.00
2018,02,21,00,58,-2.00
2018,02,21,00,59,-2.00
2018,02,21,01,00,-1.90
2018,02,21,01,01,-1.90
2018,02,21,01,02,-1.90
2018,02,21,01,03,-1.90
2018,02,21,01,04,-1.90
2018,02,21,01,05,-1.90
2018,02,21,01,06,-1.90
2018,02,21,01,07,-2.00
2018,02,21,01,08,-2.00
2018,02,21,01,09,-2.00
2018,02,21,01,10,-2.10
2018,02,21,01,11,-2.10
2018,02,21,01,12,-2.10
2018,02,21,01,13,-2.10
2018,02,21,01,14,-2.10
2018,02,21,01,15,-2.10
2018,02,21,01,16,-2.10
2018,02,21,01,17,-2.10
2018,02,21,01,18,-2.20
2018,02,21,01,19,-2.20
2018,02,21,01,20,-2.20
2018,02,21,01,21,-2.20
2018,02,21,01,22,-2.20
2018,02,21,01,23,-2.20
2018,02,21,01,24,-2.20
2018,02,21,01,25,-2.30
2018,02,21,01,26,-2.30
2018,02,21,01,27,-2.30
2018,02,21,01,28,-2.30
2018,02,21,01,29,-2.30
2018,02,21,01,30,-2.30
2018,02,21,01,31,-2.30
2018,02,21,01,32,-2.30
2018,02,21,01,33,-2.30
2018,02,21,01,34,-2.30
2018,02,21,01,35,-2.30
2018,02,21,01,36,-2.30
2018,02,21,01,37,-2.30
2018,02,21,01,38,-2.30
2018,02,21,01,39,-2.20
2018,02,21,01,40,-2.20
2018,02,21,01,41,-2.20
2018,02,21,01,42,-2.20
2018,02,21,01,43,-2.20
2018,02,21,01,44,-2.20
2018,02,21,01,45,-2.20
2018,02,21,01,46,-2.20
2018,02,21,01,47,-2.20
2018,02,21,01,48,-2.10
2018,02,21,01,49,-2.10
2018,02,21,01,50,-2.10
2018,02,21,01,51,-2.10
2018,02,21,01,52,-2.10
2018,02,21,01,53,-2.10
2018,02,21,01,54,-2.10
2018,02,21,01,55,-2.10
2018,02,21,01,56,-2.10
2018,02,21,01,57,-2.10
2018,02,21,01,58,-2.10
2018,02,21,01,59,-2.10
2018,02,21,02,00,-2.10
2018,02,21,02,01,-2.10
2018,02,21,02,02,-2.10
2018,02,21,02,03,-2.10
2018,02,21,02,04,-2.10
2018,02,21,02,05,-2.10
2018,02,21,02,06,-2.10
2018,02,21,02,07,-2.10
2018,02,21,02,08,-2.10
2018,02,21,02,09,-2.00
2018,02,21,02,10,-2.00
2018,02,21,02,11,-2.00
2018,02,21,02,12,-2.00
2018,02,21,02,13,-1.90
2018,02,21,02,14,-1.90
2018,02,21,02,15,-1.90
2018,02,21,02,16,-1.90
2018,02,21,02,17,-1.80
2018,02,21,02,18,-1.80
2018,02,21,02,19,-1.80
2018,02,21,02,20,-1.80
2018,02,21,02,21,-1.70
2018,02,21,02,22,-1.60
2018,02,21,02,23,-1.60
2018,02,21,02,24,-1.50
2018,02,21,02,25,-1.50
2018,02,21,02,26,-1.40
2018,02,21,02,27,-1.40
2018,02,21,02,28,-1.40
2018,02,21,02,29,-1.40
2018,02,21,02,30,-1.40
2018,02,21,02,31,-1.30
2018,02,21,02,32,-1.30
2018,02,21,02,33,-1.30
2018,02,21,02,34,-1.30
2018,02,21,02,35,-1.30
2018,02,21,02,36,-1.30
2018,02,21,02,37,-1.30
2018,02,21,02,38,-1.40
2018,02,21,02,39,-1.40
2018,02,21,02,40,-1.40
2018,02,21,02,41,-1.50
2018,02,21,02,42,-1.50
2018,02,21,02,43,-1.50
2018,02,21,02,44,-1.60
2018,02,21,02,45,-1.60
2018,02,21,02,46,-1.70
2018,02,21,02,47,-1.70
2018,02,21,02,48,-1.80
2018,02,21,02,49,-1.80
2018,02,21,02,50,-1.80
2018,02,21,02,51,-1.90
2018,02,21,02,52,-1.90
2018,02,21,02,53,-1.90
2018,02,21,02,54,-2.00
2018,02,21,02,55,-2.00
2018,02,21,02,56,-2.10
2018,02,21,02,57,-2.10
2018,02,21,02,58,-2.10
2018,02,21,02,59,-2.20
2018,02,21,03,00,-2.20
2018,02,21,03,01,-2.20
2018,02,21,03,02,-2.20
2018,02,21,03,03,-2.20
2018,02,21,03,04,-2.20
2018,02,21,03,05,-2.20
2018,02,21,03,06,-2.20
2018,02,21,03,07,-2.20
2018,02,21,03,08,-2.20
2018,02,21,03,09,-2.30
2018,02,21,03,10,-2.30
2018,02,21,03,11,-2.30
2018,02,21,03,12,-2.30
2018,02,21,03,13,-2.30
2018,02,21,03,14,-2.40
2018,02,21,03,15,-2.40
2018,02,21,03,16,-2.40
2018,02,21,03,17,-2.40
2018,02,21,03,18,-2.50
2018,02,21,03,19,-2.50
2018,02,21,03,20,-2.60
2018,02,21,03,21,-2.60
2018,02,21,03,22,-2.60
2018,02,21,03,23,-2.60
2018,02,21,03,24,-2.70
2018,02,21,03,25,-2.70
2018,02,21,03,26,-2.70
2018,02,21,03,27,-2.70
2018,02,21,03,28,-2.70
2018,02,21,03,29,-2.80
2018,02,21,03,30,-2.80
2018,02,21,03,31,-2.80
2018,02,21,03,32,-2.80
2018,02,21,03,33,-2.80
2018,02,21,03,34,-2.80
2018,02,21,03,35,-2.80
2018,02,21,03,36,-2.80
2018,02,21,03,37,-2.80
2018,02,21,03,38,-2.80
2018,02,21,03,39,-2.80
2018,02,21,03,40,-2.80
2018,02,21,03,41,-2.80
2018,02,21,03,42,-2.80
2018,02,21,03,43,-2.80
2018,02,21,03,44,-2.80
2018,02,21,03,45,-2.80
2018,02,21,03,46,-2.80
2018,02,21,03,47,-2.80
2018,02,21,03,48,-2.80
2018,02,21,03,49,-2.80
2018,02,21,03,50,-2.80
2018,02,21,03,51,-2.70
2018,02,21,03,52,-2.70
2018,02,21,03,53,-2.70
2018,02,21,03,54,-2.70
2018,02,21,03,55,-2.70
2018,02,21,03,56,-2.70
2018,02,21,03,57,-2.70
2018,02,21,03,58,-2.70
2018,02,21,03,59,-2.70
2018,02,21,04,00,-2.70
2018,02,21,04,01,-2.70
2018,02,21,04,02,-2.70
2018,02,21,04,03,-2.70
2018,02,21,04,04,-2.70
2018,02,21,04,05,-2.70
2018,02,21,04,06,-2.60
2018,02,21,04,07,-2.60
2018,02,21,04,08,-2.60
2018,02,21,04,09,-2.60
2018,02,21,04,10,-2.60
2018,02,21,04,11,-2.60
2018,02,21,04,12,-2.60
2018,02,21,04,13,-2.60
2018,02,21,04,14,-2.70
2018,02,21,04,15,-2.70
2018,02,21,04,16,-2.70
2018,02,21,04,17,-2.70
2018,02,21,04,18,-2.70
2018,02,21,04,19,-2.60
2018,02,21,04,20,-2.60
2018,02,21,04,21,-2.60
2018,02,21,04,22,-2.60
2018,02,21,04,23,-2.60
2018,02,21,04,24,-2.60
2018,02,21,04,25,-2.60
2018,02,21,04,26,-2.60
2018,02,21,04,27,-2.60
2018,02,21,04,28,-2.60
2018,02,21,04,29,-2.60
2018,02,21,04,30,-2.60
2018,02,21,04,31,-2.60
2018,02,21,04,32,-2.60
2018,02,21,04,33,-2.60
2018,02,21,04,34,-2.60
2018,02,21,04,35,-2.60
2018,02,21,04,36,-2.60
2018,02,21,04,37,-2.60
2018,02,21,04,38,-2.60
2018,02,21,04,39,-2.50
2018,02,21,04,40,-2.50
2018,02,21,04,41,-2.50
2018,02,21,04,42,-2.50
2018,02,21,04,43,-2.40
2018,02,21,04,44,-2.40
2018,02,21,04,45,-2.40
2018,02,21,04,46,-2.40
2018,02,21,04,47,-2.40
2018,02,21,04,48,-2.40
2018,02,21,04,49,-2.30
2018,02,21,04,50,-2.30
2018,02,21,04,51,-2.30
2018,02,21,04,52,-2.30
2018,02,21,04,53,-2.30
2018,02,21,04,54,-2.30
2018,02,21,04,55,-2.30
2018,02,21,04,56,-2.30
2018,02,21,04,57,-2.30
2018,02,21,04,58,-2.30
2018,02,21,04,59,-2.30
2018,02,21,05,00,-2.30
2018,02,21,05,01,-2.30
2018,02,21,05,02,-2.30
2018,02,21,05,03,-2.20
2018,02,21,05,04,-2.20
2018,02,21,05,05,-2.20
2018,02,21,05,06,-2.20
2018,02,21,05,07,-2.20
2018,02,21,05,08,-2.20
2018,02,21,05,09,-2.20
2018,02,21,05,10,-2.20
2018,02,21,05,11,-2.20
2018,02,21,05,12,-2.20
2018,02,21,05,13,-2.20
2018,02,21,05,14,-2.20
2018,02,21,05,15,-2.20
2018,02,21,05,16,-2.20
2018,02,21,05,17,-2.20
2018,02,21,05,18,-2.20
2018,02,21,05,19,-2.20
2018,02,21,05,20,-2.20
2018,02,21,05,21,-2.20
2018,02,21,05,22,-2.20
2018,02,21,05,23,-2.20
2018,02,21,05,24,-2.20
2018,02,21,05,25,-2.10
2018,02,21,05,26,-2.10
2018,02,21,05,27,-2.10
2018,02,21,05,28,-2.10
2018,02,21,05,29,-2.10
2018,02,21,05,30,-2.10
2018,02,21,05,31,-2.10
2018,02,21,05,32,-2.10
2018,02,21,05,33,-2.10
2018,02,21,05,34,-2.00
2018,02,21,05,35,-2.00
2018,02,21,05,36,-2.00
2018,02,21,05,37,-1.90
2018,02,21,05,38,-1.90
2018,02,21,05,39,-1.90
2018,02,21,05,40,-1.90
2018,02,21,05,41,-1.80
2018,02,21,05,42,-1.80
2018,02,21,05,43,-1.80
2018,02,21,05,44,-1.80
2018,02,21,05,45,-1.80
2018,02,21,05,46,-1.80
2018,02,21,05,47,-1.80
2018,02,21,05,48,-1.70
2018,02,21,05,49,-1.70
2018,02,21,05,50,-1.70
2018,02,21,05,51,-1.70
2018,02,21,05,52,-1.70
2018,02,21,05,53,-1.70
2018,02,21,05,54,-1.70
2018,02,21,05,55,-1.60
2018,02,21,05,56,-1.60
2018,02,21,05,57,-1.60
2018,02,21,05,58,-1.60
2018,02,21,05,59,-1.60
2018,02,21,06,00,-1.60
2018,02,21,06,01,-1.60
2018,02,21,06,02,-1.60
2018,02,21,06,03,-1.50
2018,02,21,06,04,-1.50
2018,02,21,06,05,-1.50
2018,02,21,06,06,-1.40
2018,02,21,06,07,-1.30
2018,02,21,06,08,-1.20
2018,02,21,06,09,-1.10
2018,02,21,06,10,-1.00
2018,02,21,06,11,-1.00
2018,02,21,06,12,-0.90
2018,02,21,06,13,-0.90
2018,02,21,06,14,-0.80
2018,02,21,06,15,-0.80
2018,02,21,06,16,-0.70
2018,02,21,06,17,-0.70
2018,02,21,06,18,-0.60
2018,02,21,06,19,-0.50
2018,02,21,06,20,-0.50
2018,02,21,06,21,-0.50
2018,02,21,06,22,-0.40
2018,02,21,06,23,-0.40
2018,02,21,06,24,-0.40
2018,02,21,06,25,-0.40
2018,02,21,06,26,-0.40
2018,02,21,06,27,-0.40
2018,02,21,06,28,-0.40
2018,02,21,06,29,-0.40
2018,02,21,06,30,-0.40
2018,02,21,06,31,-0.40
2018,02,21,06,32,-0.40
2018,02,21,06,33,-0.30
2018,02,21,06,34,-0.30
2018,02,21,06,35,-0.30
2018,02,21,06,36,-0.30
2018,02,21,06,37,-0.30
2018,02,21,06,38,-0.30
2018,02,21,06,39,-0.30
2018,02,21,06,40,-0.20
2018,02,21,06,41,-0.20
2018,02,21,06,42,-0.20
2018,02,21,06,43,-0.10
2018,02,21,06,44,-0.10
2018,02,21,06,45,-0.10
2018,02,21,06,46,-0.10
2018,02,21,06,47,-0.10
2018,02,21,06,48,-0.10
2018,02,21,06,49,-0.10
2018,02,21,06,50,-0.10
2018,02,21,06,51,-0.10
2018,02,21,06,52,-0.10
2018,02,21,06,53,-0.10
2018,02,21,06,54,-0.10
2018,02,21,06,55,-0.10
2018,02,21,06,56,-0.10
2018,02,21,06,57,-0.10
2018,02,21,06,58,-0.10
2018,02,21,06,59,-0.10
2018,02,21,07,00,-0.10
2018,02,21,07,01,-0.10
2018,02,21,09,18,1.10
2018,02,21,09,19,1.10
2018,02,21,09,20,1.10
2018,02,21,09,21,1.10
2018,02,21,09,22,1.20
2018,02,21,09,23,1.20
2018,02,21,09,24,1.20
2018,02,21,09,25,1.20
2018,02,21,09,26,1.30
2018,02,21,09,27,1.30
2018,02,21,09,28,1.30
2018,02,21,09,29,1.30
2018,02,21,09,30,1.30
2018,02,21,09,31,1.30
2018,02,21,09,32,1.30
2018,02,21,09,33,1.40
2018,02,21,09,34,1.40
2018,02,21,09,35,1.40
2018,02,21,09,36,1.40
2018,02,21,09,37,1.40
2018,02,21,09,38,1.40
2018,02,21,09,39,1.40
2018,02,21,09,40,1.40
2018,02,21,09,41,1.40
2018,02,21,09,42,1.40
2018,02,21,09,43,1.40
2018,02,21,09,44,1.40
2018,02,21,09,45,1.40
2018,02,21,09,46,1.40
2018,02,21,09,47,1.40
2018,02,21,09,48,1.40
2018,02,21,09,49,1.40
2018,02,21,09,50,1.40
2018,02,21,09,51,1.40
2018,02,21,09,52,1.40
2018,02,21,09,53,1.40
2018,02,21,09,54,1.40
2018,02,21,09,55,1.40
2018,02,21,09,56,1.40
2018,02,21,09,57,1.40
2018,02,21,09,58,1.40
2018,02,21,09,59,1.40
2018,02,21,10,00,1.40
2018,02,21,10,01,1.40
2018,02,21,10,02,1.40
2018,02,21,10,03,1.40
2018,02,21,10,04,1.40
2018,02,21,10,05,1.40
2018,02,21,10,06,1.40
2018,02,21,10,07,1.50
2018,02,21,10,08,1.50
2018,02,21,10,09,1.50
2018,02,21,10,10,1.50
2018,02,21,10,11,1.50
2018,02,21,10,12,1.60
2018,02,21,10,13,1.60
2018,02,21,10,14,1.60
2018,02,21,10,15,1.60
2018,02,21,10,16,1.60
2018,02,21,10,17,1.60
2018,02,21,10,18,1.60
2018,02,21,10,19,1.60
2018,02,21,10,20,1.60
2018,02,21,10,21,1.60
2018,02,21,10,22,1.60
2018,02,21,10,23,1.60
2018,02,21,10,24,1.60
2018,02,21,10,25,1.60
2018,02,21,10,26,1.60
2018,02,21,10,27,1.60
2018,02,21,10,28,1.60
2018,02,21,10,29,1.50
2018,02,21,10,30,1.50
2018,02,21,10,31,1.50
2018,02,21,10,32,1.40
2018,02,21,10,33,1.40
2018,02,21,10,34,1.40
2018,02,21,10,35,1.30
2018,02,21,10,36,1.30
2018,02,21,10,37,1.30
2018,02,21,10,38,1.30
2018,02,21,10,39,1.20
2018,02,21,10,40,1.20
2018,02,21,10,41,1.10
2018,02,21,10,42,1.10
2018,02,21,10,43,1.10
2018,02,21,10,44,1.00
2018,02,21,10,45,1.00
2018,02,21,10,46,0.90
2018,02,21,10,47,0.90
2018,02,21,10,48,0.90
2018,02,21,10,49,0.80
2018,02,21,10,50,0.80
2018,02,21,10,51,0.80
2018,02,21,10,52,0.80
2018,02,21,10,53,0.70
2018,02,21,10,54,0.70
2018,02,21,10,55,0.70
2018,02,21,10,56,0.70
2018,02,21,10,57,0.70
2018,02,21,10,58,0.60
2018,02,21,10,59,0.60
2018,02,21,11,00,0.60
2018,02,21,11,01,0.60
2018,02,21,11,02,0.50
2018,02,21,11,03,0.50
2018,02,21,11,04,0.50
2018,02,21,11,05,0.50
2018,02,21,11,06,0.40
2018,02,21,11,07,0.40
2018,02,21,11,08,0.40
2018,02,21,11,09,0.40
2018,02,21,11,10,0.40
2018,02,21,11,11,0.40
2018,02,21,11,12,0.40
2018,02,21,11,13,0.40
2018,02,21,11,14,0.40
2018,02,21,11,15,0.40
2018,02,21,11,16,0.40
2018,02,21,11,17,0.40
2018,02,21,11,18,0.40
2018,02,21,11,19,0.40
2018,02,21,11,20,0.30
2018,02,21,11,21,0.40
2018,02,21,11,22,0.30
2018,02,21,11,23,0.40
2018,02,21,11,24,0.40
2018,02,21,11,25,0.40
2018,02,21,11,26,0.30
2018,02,21,11,27,0.30
2018,02,21,11,28,0.30
2018,02,21,11,29,0.30
2018,02,21,11,30,0.30
2018,02,21,11,31,0.30
2018,02,21,11,32,0.30
2018,02,21,11,33,0.30
2018,02,21,11,34,0.30
2018,02,21,11,35,0.30
2018,02,21,11,36,0.30
2018,02,21,11,37,0.30
2018,02,21,11,38,0.30
2018,02,21,11,39,0.30
2018,02,21,11,40,0.30
2018,02,21,11,41,0.30
2018,02,21,11,42,0.30
2018,02,21,11,43,0.30
2018,02,21,11,44,0.30
2018,02,21,11,45,0.30
2018,02,21,11,46,0.40
2018,02,21,11,47,0.40
2018,02,21,11,48,0.40
2018,02,21,11,49,0.40
2018,02,21,11,50,0.40
2018,02,21,11,51,0.40
2018,02,21,11,52,0.40
2018,02,21,11,53,0.40
2018,02,21,11,54,0.40
2018,02,21,11,55,0.40
2018,02,21,11,56,0.40
2018,02,21,11,57,0.40
2018,02,21,11,58,0.40
2018,02,21,11,59,0.50
2018,02,21,12,00,0.50
2018,02,21,12,01,0.50
2018,02,21,12,02,0.50
2018,02,21,12,03,0.50
2018,02,21,12,04,0.60
2018,02,21,12,05,0.60
2018,02,21,12,06,0.60
2018,02,21,12,07,0.60
2018,02,21,12,08,0.60
2018,02,21,12,09,0.60
2018,02,21,12,10,0.60
2018,02,21,12,11,0.60
2018,02,21,12,12,0.60
2018,02,21,12,13,0.60
2018,02,21,12,14,0.60
2018,02,21,12,15,0.60
2018,02,21,12,16,0.60
2018,02,21,12,17,0.60
2018,02,21,12,18,0.60
2018,02,21,12,19,0.60
2018,02,21,12,20,0.60
2018,02,21,12,21,0.60
2018,02,21,12,22,0.60
2018,02,21,12,23,0.60
2018,02,21,12,24,0.60
2018,02,21,12,25,0.60
2018,02,21,12,26,0.60
2018,02,21,12,27,0.70
2018,02,21,12,28,0.70
2018,02,21,12,29,0.70
2018,02,21,12,30,0.70
2018,02,21,12,31,0.70
2018,02,21,12,32,0.70
2018,02,21,12,33,0.70
2018,02,21,12,34,0.70
2018,02,21,12,35,0.70
2018,02,21,12,36,0.70
2018,02,21,12,37,0.70
2018,02,21,12,38,0.60
2018,02,21,12,39,0.70
2018,02,21,12,40,0.70
2018,02,21,12,41,0.70
2018,02,21,12,42,0.70
2018,02,21,12,43,0.70
2018,02,21,12,44,0.70
2018,02,21,12,45,0.70
2018,02,21,12,46,0.70
2018,02,21,12,47,0.70
2018,02,21,12,48,0.60
2018,02,21,12,49,0.60
2018,02,21,12,50,0.60
2018,02,21,12,51,0.60
2018,02,21,12,52,0.60
2018,02,21,12,53,0.60
2018,02,21,12,54,0.60
2018,02,21,12,55,0.60
2018,02,21,12,56,0.50
2018,02,21,12,57,0.50
2018,02,21,12,58,0.50
2018,02,21,12,59,0.50
2018,02,21,13,00,0.50
2018,02,21,13,01,0.50
2018,02,21,13,02,0.50
2018,02,21,13,03,0.50
2018,02,21,13,04,0.50
2018,02,21,13,05,0.50
2018,02,21,13,06,0.50
2018,02,21,13,07,0.50
2018,02,21,13,08,0.60
2018,02,21,13,09,0.60
2018,02,21,13,10,0.60
2018,02,21,13,11,0.60
2018,02,21,13,12,0.60
2018,02,21,13,13,0.60
2018,02,21,13,14,0.60
2018,02,21,13,15,0.60
2018,02,21,13,16,0.60
2018,02,21,13,17,0.60
2018,02,21,13,18,0.60
2018,02,21,13,19,0.60
2018,02,21,13,20,0.70
2018,02,21,13,21,0.70
2018,02,21,13,22,0.70
2018,02,21,13,23,0.70
2018,02,21,13,24,0.70
2018,02,21,13,25,0.80
2018,02,21,13,26,0.80
2018,02,21,13,27,0.80
2018,02,21,13,28,0.80
2018,02,21,13,29,0.80
2018,02,21,13,30,0.80
2018,02,21,13,31,0.80
2018,02,21,13,32,0.80
2018,02,21,13,33,0.80
2018,02,21,13,34,0.80
2018,02,21,13,35,0.80
2018,02,21,13,36,0.80
2018,02,21,13,37,0.80
2018,02,21,13,38,0.90
2018,02,21,13,39,0.90
2018,02,21,13,40,0.90
2018,02,21,13,41,0.90
2018,02,21,13,42,1.00
2018,02,21,13,43,1.00
2018,02,21,13,44,1.00
2018,02,21,13,45,1.00
2018,02,21,13,46,1.00
2018,02,21,13,47,1.10
2018,02,21,13,48,1.10
2018,02,21,13,49,1.10
2018,02,21,13,50,1.10
2018,02,21,13,51,1.10
2018,02,21,13,52,1.10
2018,02,21,13,53,1.10
2018,02,21,13,54,1.10
2018,02,21,13,55,1.10
2018,02,21,13,56,1.10
2018,02,21,13,57,1.10
2018,02,21,13,58,1.10
2018,02,21,13,59,1.10
2018,02,21,14,00,1.10
2018,02,21,14,01,1.10
2018,02,21,14,02,1.20
2018,02,21,14,03,1.20
2018,02,21,14,04,1.20
2018,02,21,14,05,1.20
2018,02,21,14,06,1.30
2018,02,21,14,07,1.30
2018,02,21,14,08,1.30
2018,02,21,14,09,1.30
2018,02,21,14,10,1.20
2018,02,21,14,11,1.20
2018,02,21,14,12,1.20
2018,02,21,14,13,1.20
2018,02,21,14,14,1.20
2018,02,21,14,15,1.20
2018,02,21,14,16,1.20
2018,02,21,14,17,1.20
2018,02,21,14,18,1.20
2018,02,21,14,19,1.20
2018,02,21,14,20,1.20
2018,02,21,14,21,1.20
2018,02,21,14,22,1.20
2018,02,21,14,23,1.20
2018,02,21,14,24,1.20
2018,02,21,14,25,1.30
2018,02,21,14,26,1.30
2018,02,21,14,27,1.30
2018,02,21,14,28,1.30
2018,02,21,14,29,1.30
2018,02,21,14,30,1.30
2018,02,21,14,31,1.30
2018,02,21,14,32,1.20
2018,02,21,14,33,1.30
2018,02,21,14,34,1.30
2018,02,21,14,35,1.30
2018,02,21,14,36,1.20
2018,02,21,14,37,1.20
2018,02,21,14,38,1.30
2018,02,21,14,39,1.30
2018,02,21,14,40,1.30
2018,02,21,14,41,1.30
2018,02,21,14,42,1.30
2018,02,21,14,43,1.30
2018,02,21,14,44,1.30
2018,02,21,14,45,1.30
2018,02,21,14,46,1.30
2018,02,21,14,47,1.30
2018,02,21,14,48,1.30
2018,02,21,14,49,1.30
2018,02,21,14,50,1.30
2018,02,21,14,51,1.30
2018,02,21,14,52,1.30
2018,02,21,14,53,1.30
2018,02,21,14,54,1.30
2018,02,21,14,55,1.30
2018,02,21,14,56,1.30
2018,02,21,14,57,1.30
2018,02,21,14,58,1.30
2018,02,21,14,59,1.30
2018,02,21,15,00,1.40
2018,02,21,15,01,1.40
2018,02,21,15,02,1.40
2018,02,21,15,03,1.40
2018,02,21,15,04,1.40
2018,02,21,15,05,1.40
2018,02,21,15,06,1.40
2018,02,21,15,07,1.40
2018,02,21,15,08,1.40
2018,02,21,15,09,1.40
2018,02,21,15,10,1.40
2018,02,21,15,11,1.40
2018,02,21,15,12,1.40
2018,02,21,15,13,1.40
2018,02,21,15,14,1.40
2018,02,21,15,15,1.40
2018,02,21,15,16,1.50
2018,02,21,15,17,1.50
2018,02,21,15,18,1.50
2018,02,21,15,19,1.50
2018,02,21,15,20,1.50
2018,02,21,15,21,1.50
2018,02,21,15,22,1.40
2018,02,21,15,23,1.40
2018,02,21,15,24,1.40
2018,02,21,15,25,1.40
2018,02,21,15,26,1.40
2018,02,21,15,27,1.30
2018,02,21,15,28,1.30
2018,02,21,15,29,1.30
2018,02,21,15,30,1.30
2018,02,21,15,31,1.30
2018,02,21,15,32,1.30
2018,02,21,15,33,1.30
2018,02,21,15,34,1.30
2018,02,21,15,35,1.30
2018,02,21,15,36,1.30
2018,02,21,15,37,1.30
2018,02,21,15,38,1.30
2018,02,21,15,39,1.30
2018,02,21,15,40,1.30
2018,02,21,15,41,1.30
2018,02,21,15,42,1.30
2018,02,21,15,43,1.30
2018,02,21,15,44,1.30
2018,02,21,15,45,1.30
2018,02,21,15,46,1.30
2018,02,21,15,47,1.30
2018,02,21,15,48,1.30
2018,02,21,15,49,1.30
2018,02,21,15,50,1.30
2018,02,21,15,51,1.30
2018,02,21,15,52,1.30
2018,02,21,15,53,1.30
2018,02,21,15,54,1.30
2018,02,21,15,55,1.30
2018,02,21,15,56,1.30
2018,02,21,15,57,1.30
2018,02,21,15,58,1.30
2018,02,21,15,59,1.30
2018,02,21,16,00,1.30
2018,02,21,16,01,1.30
2018,02,21,16,02,1.30
2018,02,21,16,03,1.30
2018,02,21,16,04,1.30
2018,02,21,16,05,1.30
2018,02,21,16,06,1.40
2018,02,21,16,07,1.40
2018,02,21,16,08,1.30
2018,02,21,16,09,1.30
2018,02,21,16,10,1.30
2018,02,21,16,11,1.30
2018,02,21,16,12,1.30
2018,02,21,16,13,1.30
2018,02,21,16,14,1.30
2018,02,21,16,15,1.30
2018,02,21,16,16,1.40
2018,02,21,16,17,1.40
2018,02,21,16,18,1.40
2018,02,21,16,19,1.40
2018,02,21,16,20,1.40
2018,02,21,16,21,1.40
2018,02,21,16,22,1.40
2018,02,21,16,23,1.40
2018,02,21,16,24,1.40
2018,02,21,16,25,1.40
2018,02,21,16,26,1.40
2018,02,21,16,27,1.40
2018,02,21,16,28,1.40
2018,02,21,16,29,1.40
2018,02,21,16,30,1.40
2018,02,21,16,31,1.40
2018,02,21,16,32,1.50
2018,02,21,16,33,1.50
2018,02,21,16,34,1.50
2018,02,21,16,35,1.50
2018,02,21,16,36,1.50
2018,02,21,16,37,1.50
2018,02,21,16,38,1.50
2018,02,21,16,39,1.50
2018,02,21,16,40,1.50
2018,02,21,16,41,1.50
2018,02,21,16,42,1.40
2018,02,21,16,43,1.40
2018,02,21,16,44,1.40
2018,02,21,16,45,1.40
2018,02,21,16,46,1.40
2018,02,21,16,47,1.40
2018,02,21,16,48,1.40
2018,02,21,16,49,1.50
2018,02,21,16,50,1.50
2018,02,21,16,51,1.50
2018,02,21,16,52,1.50
2018,02,21,16,53,1.50
2018,02,21,16,54,1.50
2018,02,21,16,55,1.50
2018,02,21,16,56,1.40
2018,02,21,16,57,1.40
2018,02,21,16,58,1.40
2018,02,21,16,59,1.40
2018,02,21,17,00,1.40
2018,02,21,17,01,1.40
2018,02,21,17,02,1.40
2018,02,21,17,03,1.40
2018,02,21,17,04,1.40
2018,02,21,17,05,1.40
2018,02,21,17,06,1.40
2018,02,21,17,07,1.40
2018,02,21,17,08,1.40
2018,02,21,17,09,1.40
2018,02,21,17,10,1.40
2018,02,21,17,11,1.40
2018,02,21,17,12,1.40
2018,02,21,17,13,1.40
2018,02,21,17,14,1.40
2018,02,21,17,15,1.40
2018,02,21,17,16,1.40
2018,02,21,17,17,1.40
2018,02,21,17,18,1.40
2018,02,21,17,19,1.40
2018,02,21,17,20,1.40
2018,02,21,17,21,1.40
2018,02,21,17,22,1.40
2018,02,21,17,23,1.40
2018,02,21,17,24,1.40
2018,02,21,17,25,1.40
2018,02,21,17,26,1.40
2018,02,21,17,27,1.40
2018,02,21,17,28,1.40
2018,02,21,17,29,1.40
2018,02,21,17,30,1.40
2018,02,21,17,31,1.40
2018,02,21,17,32,1.40
2018,02,21,17,33,1.40
2018,02,21,17,34,1.40
2018,02,21,17,35,1.40
2018,02,21,17,36,1.30
2018,02,21,17,37,1.30
2018,02,21,17,38,1.30
2018,02,21,17,39,1.30
2018,02,21,17,40,1.30
2018,02,21,17,41,1.20
2018,02,21,17,42,1.20
2018,02,21,17,43,1.20
2018,02,21,17,44,1.20
2018,02,21,17,45,1.20
2018,02,21,17,46,1.20
2018,02,21,17,47,1.20
2018,02,21,17,48,1.20
2018,02,21,17,49,1.20
2018,02,21,17,50,1.20
2018,02,21,17,51,1.20
2018,02,21,17,52,1.20
2018,02,21,17,53,1.20
2018,02,21,17,54,1.20
2018,02,21,17,55,1.20
2018,02,21,17,56,1.20
2018,02,21,17,57,1.20
2018,02,21,17,58,1.20
2018,02,21,17,59,1.10
2018,02,21,18,00,1.10
2018,02,21,18,01,1.10
2018,02,21,18,02,1.10
2018,02,21,18,03,1.10
2018,02,21,18,04,1.10
2018,02,21,18,05,1.10
2018,02,21,18,06,1.10
2018,02,21,18,07,1.10
2018,02,21,18,08,1.10
2018,02,21,18,09,1.10
2018,02,21,18,10,1.10
2018,02,21,18,11,1.10
2018,02,21,18,12,1.20
2018,02,21,18,13,1.20
2018,02,21,18,14,1.20
2018,02,21,18,15,1.20
2018,02,21,18,16,1.20
2018,02,21,18,17,1.20
2018,02,21,18,18,1.20
2018,02,21,18,19,1.20
2018,02,21,18,20,1.20
2018,02,21,18,21,1.20
2018,02,21,18,22,1.20
2018,02,21,18,23,1.20
2018,02,21,18,24,1.20
2018,02,21,18,25,1.20
2018,02,21,18,26,1.20
2018,02,21,18,27,1.20
2018,02,21,18,28,1.20
2018,02,21,18,29,1.20
2018,02,21,18,30,1.20
2018,02,21,18,31,1.20
2018,02,21,18,32,1.20
2018,02,21,18,33,1.20
2018,02,21,18,34,1.20
2018,02,21,18,35,1.20
2018,02,21,18,36,1.20
2018,02,21,18,37,1.20
2018,02,21,18,38,1.20
2018,02,21,18,39,1.20
2018,02,21,18,40,1.20
2018,02,21,18,41,1.20
2018,02,21,18,42,1.20
2018,02,21,18,43,1.20
2018,02,21,18,44,1.20
2018,02,21,18,45,1.20
2018,02,21,18,46,1.20
2018,02,21,18,47,1.20
2018,02,21,18,48,1.20
2018,02,21,18,49,1.20
2018,02,21,18,50,1.20
2018,02,21,18,51,1.20
2018,02,21,18,52,1.20
2018,02,21,18,53,1.20
2018,02,21,18,54,1.20
2018,02,21,18,55,1.20
2018,02,21,18,56,1.20
2018,02,21,18,57,1.20
2018,02,21,18,58,1.20
2018,02,21,18,59,1.20
2018,02,21,19,00,1.20
2018,02,21,19,01,1.20
2018,02,21,19,02,1.20
2018,02,21,19,03,1.20
2018,02,21,19,04,1.20
2018,02,21,19,05,1.20
2018,02,21,19,06,1.20
2018,02,21,19,07,1.20
2018,02,21,19,08,1.20
2018,02,21,19,09,1.20
2018,02,21,19,10,1.20
2018,02,21,19,11,1.20
2018,02,21,19,12,1.20
2018,02,21,19,13,1.20
2018,02,21,19,14,1.20
2018,02,21,19,15,1.20
2018,02,21,19,16,1.20
2018,02,21,19,17,1.20
2018,02,21,19,18,1.20
2018,02,21,19,19,1.20
2018,02,21,19,20,1.20
2018,02,21,19,21,1.20
2018,02,21,19,22,1.20
2018,02,21,19,23,1.20
2018,02,21,19,24,1.20
2018,02,21,19,25,1.20
2018,02,21,19,26,1.20
2018,02,21,19,27,1.30
2018,02,21,19,28,1.30
2018,02,21,19,29,1.30
2018,02,21,19,30,1.30
2018,02,21,19,31,1.30
2018,02,21,19,32,1.30
2018,02,21,19,33,1.30
2018,02,21,19,34,1.30
2018,02,21,19,35,1.30
2018,02,21,19,36,1.20
2018,02,21,19,37,1.20
2018,02,21,19,38,1.20
2018,02,21,19,39,1.20
2018,02,21,19,40,1.20
2018,02,21,19,41,1.20
2018,02,21,19,42,1.20
2018,02,21,19,43,1.20
2018,02,21,19,44,1.20
2018,02,21,19,45,1.20
2018,02,21,19,46,1.20
2018,02,21,19,47,1.20
2018,02,21,19,48,1.20
2018,02,21,19,49,1.20
2018,02,21,19,50,1.20
2018,02,21,19,51,1.20
2018,02,21,19,52,1.20
2018,02,21,19,53,1.20
2018,02,21,19,54,1.10
2018,02,21,19,55,1.10
2018,02,21,19,56,1.10
2018,02,21,19,57,1.10
2018,02,21,19,58,1.10
2018,02,21,19,59,1.10
2018,02,21,20,00,1.10
2018,02,21,20,01,1.10
2018,02,21,20,02,1.10
2018,02,21,20,03,1.10